• In Hungary
  • List of Countries
  • For 7 days
  • Water Temperature
  • Satellite Maps
  • Weather Map
  • News
  • Weather Widgets
  • user-avatar
    Login

    Hourly Weather Biella

    Today, 17 January, Wednesday

    Time Temperature Precipitation Wind Pressure Humidity
    00:00 +4°C° 0.6 mm 2 mps 712 mmHg 91%
    01:00 +4°C° 0.6 mm 2 mps 712 mmHg 91%
    02:00 +4°C° 0.5 mm 2 mps 711 mmHg 92%
    03:00 +4°C° 0.5 mm 2 mps 711 mmHg 92%
    04:00 +3°C° 0.5 mm 2 mps 711 mmHg 92%
    05:00 +3°C° 0.4 mm 2 mps 711 mmHg 91%
    06:00 +2°C° 0.4 mm 3 mps 712 mmHg 91%
    07:00 +2°C° 0.4 mm 3 mps 712 mmHg 90%
    08:00 +2°C° 0.3 mm 3 mps 713 mmHg 84%
    09:00 +1°C° 0.3 mm 4 mps 714 mmHg 79%
    10:00 +1°C° 0.3 mm 4 mps 715 mmHg 73%
    11:00 +3°C° 0.4 mm 4 mps 715 mmHg 70%
    12:00 +3°C° 0.4 mm 4 mps 716 mmHg 67%
    13:00 +3°C° 0.4 mm 4 mps 717 mmHg 63%
    14:00 +3°C° 0.2 mm 4 mps 718 mmHg 64%
    15:00 +3°C° 0.2 mm 3 mps 719 mmHg 65%
    16:00 +2°C° 0.2 mm 3 mps 720 mmHg 65%
    17:00 +1°C° 0.1 mm 3 mps 720 mmHg 67%
    18:00 +1°C° 0.1 mm 3 mps 721 mmHg 68%
    19:00 +1°C° 0.1 mm 2 mps 722 mmHg 69%
    20:00 0°C° 0.1 mm 3 mps 722 mmHg 69%
    21:00 0°C° 0.1 mm 3 mps 723 mmHg 69%
    22:00 -1°C° 0.1 mm 3 mps 723 mmHg 70%
    23:00 -1°C° 0.1 mm 3 mps 724 mmHg 70%

    Tomorrow, 18 January, Thursday

    Time Temperature Precipitation Wind Pressure Humidity
    00:00 -1°C° 0.1 mm 3 mps 724 mmHg 70%
    01:00 -1°C° 0.1 mm 3 mps 724 mmHg 70%
    02:00 -1°C° 0.1 mm 2 mps 724 mmHg 71%
    03:00 -1°C° 0.1 mm 2 mps 724 mmHg 71%
    04:00 -1°C° 0.1 mm 2 mps 724 mmHg 72%
    05:00 -1°C° 0.1 mm 2 mps 724 mmHg 72%
    06:00 -1°C° 0.1 mm 2 mps 724 mmHg 72%
    07:00 -1°C° 0.1 mm 2 mps 724 mmHg 72%
    08:00 +1°C° 0.1 mm 2 mps 724 mmHg 70%
    09:00 +2°C° 0.1 mm 2 mps 724 mmHg 69%
    10:00 +3°C° 0.1 mm 2 mps 723 mmHg 67%
    11:00 +4°C° 0.1 mm 2 mps 723 mmHg 66%
    12:00 +5°C° 0.1 mm 2 mps 722 mmHg 65%
    13:00 +6°C° 0.1 mm 2 mps 722 mmHg 64%
    14:00 +6°C° 0.1 mm 2 mps 721 mmHg 67%
    15:00 +6°C° 0.1 mm 2 mps 721 mmHg 70%
    16:00 +6°C° 0.1 mm 2 mps 720 mmHg 73%
    17:00 +5°C° 0.1 mm 2 mps 720 mmHg 74%
    18:00 +5°C° 0.1 mm 2 mps 720 mmHg 76%
    19:00 +4°C° 0.1 mm 2 mps 720 mmHg 78%
    20:00 +4°C° 0.1 mm 2 mps 719 mmHg 79%
    21:00 +4°C° 0.1 mm 2 mps 719 mmHg 80%
    22:00 +4°C° 0.1 mm 2 mps 719 mmHg 81%
    23:00 +4°C° 0.3 mm 2 mps 719 mmHg 82%

    Day after tomorrow, 19 January, Friday

    Time Temperature Precipitation Wind Pressure Humidity
    00:00 +4°C° 0.3 mm 2 mps 718 mmHg 82%
    01:00 +4°C° 0.3 mm 2 mps 718 mmHg 83%
    02:00 +4°C° 0.2 mm 2 mps 717 mmHg 84%
    03:00 +4°C° 0.2 mm 2 mps 717 mmHg 85%
    04:00 +4°C° 0.2 mm 2 mps 717 mmHg 85%
    05:00 +4°C° 0.2 mm 2 mps 717 mmHg 85%
    06:00 +3°C° 0.2 mm 2 mps 716 mmHg 86%
    07:00 +3°C° 0.2 mm 2 mps 716 mmHg 86%
    08:00 +4°C° 0.2 mm 2 mps 717 mmHg 84%
    09:00 +4°C° 0.2 mm 2 mps 717 mmHg 83%
    10:00 +5°C° 0.2 mm 2 mps 717 mmHg 81%
    11:00 +6°C° 0.1 mm 2 mps 717 mmHg 78%
    12:00 +6°C° 0.1 mm 2 mps 717 mmHg 75%
    13:00 +7°C° 0.1 mm 2 mps 717 mmHg 73%
    14:00 +7°C° 0.1 mm 2 mps 717 mmHg 71%
    15:00 +7°C° 0.1 mm 2 mps 717 mmHg 70%
    16:00 +6°C° 0.1 mm 2 mps 717 mmHg 68%
    17:00 +4°C° 0.1 mm 3 mps 717 mmHg 67%
    18:00 +3°C° 0.1 mm 3 mps 718 mmHg 66%
    19:00 +2°C° 0.1 mm 3 mps 718 mmHg 65%
    20:00 +2°C° 0.1 mm 3 mps 718 mmHg 66%
    21:00 +2°C° 0.1 mm 3 mps 719 mmHg 66%
    22:00 +1°C° 0.1 mm 3 mps 719 mmHg 67%
    23:00 +1°C° 0.1 mm 3 mps 719 mmHg 67%

    20 January, Saturday

    Time Temperature Precipitation Wind Pressure Humidity
    00:00 +1°C° 0.1 mm 3 mps 719 mmHg 67%
    01:00 +1°C° 0.1 mm 3 mps 719 mmHg 68%
    02:00 +2°C° 0.1 mm 2 mps 719 mmHg 68%
    03:00 +1°C° 0.1 mm 2 mps 720 mmHg 68%
    04:00 +1°C° 0.1 mm 2 mps 720 mmHg 69%
    05:00 +1°C° 0.1 mm 2 mps 720 mmHg 69%
    06:00 +1°C° 0.1 mm 2 mps 720 mmHg 69%
    07:00 +1°C° 0.1 mm 2 mps 720 mmHg 70%
    08:00 +1°C° 0.2 mm 2 mps 720 mmHg 69%
    09:00 +1°C° 0.2 mm 2 mps 720 mmHg 69%
    10:00 +2°C° 0.2 mm 2 mps 720 mmHg 68%
    11:00 +2°C° 0.1 mm 2 mps 720 mmHg 65%
    12:00 +3°C° 0.1 mm 2 mps 720 mmHg 63%
    13:00 +4°C° 0.1 mm 2 mps 720 mmHg 60%
    14:00 +3°C° 0.2 mm 2 mps 719 mmHg 63%
    15:00 +3°C° 0.2 mm 2 mps 718 mmHg 66%
    16:00 +4°C° 0.2 mm 1 mps 718 mmHg 68%
    17:00 +3°C° 0.3 mm 1 mps 718 mmHg 71%
    18:00 +3°C° 0.3 mm 1 mps 717 mmHg 73%
    19:00 +1°C° 0.3 mm 2 mps 717 mmHg 75%
    20:00 +1°C° 0.3 mm 2 mps 717 mmHg 76%
    21:00 +1°C° 0.3 mm 2 mps 717 mmHg 76%
    22:00 +1°C° 0.3 mm 2 mps 717 mmHg 77%
    23:00 +1°C° 0.2 mm 2 mps 718 mmHg 77%

    21 January, Sunday

    Time Temperature Precipitation Wind Pressure Humidity
    00:00 +1°C° 0.2 mm 2 mps 718 mmHg 77%
    01:00 +1°C° 0.2 mm 2 mps 718 mmHg 76%
    02:00 +1°C° 0 mm 2 mps 719 mmHg 77%
    03:00 -1°C° 0 mm 2 mps 720 mmHg 77%
    04:00 -1°C° 0 mm 2 mps 720 mmHg 77%
    05:00 -1°C° 0 mm 2 mps 721 mmHg 76%
    06:00 -2°C° 0 mm 2 mps 722 mmHg 76%
    07:00 -2°C° 0 mm 2 mps 723 mmHg 75%
    08:00 -1°C° 0 mm 2 mps 724 mmHg 73%
    09:00 +1°C° 0 mm 2 mps 724 mmHg 70%
    10:00 +1°C° 0 mm 2 mps 725 mmHg 67%
    11:00 +2°C° 0 mm 2 mps 725 mmHg 64%
    12:00 +3°C° 0 mm 2 mps 725 mmHg 61%
    13:00 +4°C° 0 mm 2 mps 725 mmHg 59%
    14:00 +4°C° 0.5 mm 2 mps 725 mmHg 61%
    15:00 +4°C° 0.5 mm 2 mps 725 mmHg 64%
    16:00 +4°C° 0.5 mm 2 mps 725 mmHg 67%
    17:00 +3°C° 0.8 mm 2 mps 725 mmHg 67%
    18:00 +3°C° 0.8 mm 2 mps 725 mmHg 68%
    19:00 +3°C° 0.8 mm 1 mps 725 mmHg 69%
    20:00 +2°C° 0.8 mm 2 mps 725 mmHg 68%
    21:00 +2°C° 0.8 mm 2 mps 725 mmHg 68%
    22:00 +2°C° 0.8 mm 2 mps 725 mmHg 67%
    23:00 +2°C° 0.6 mm 2 mps 725 mmHg 68%

    22 January, Monday

    Time Temperature Precipitation Wind Pressure Humidity
    00:00 +2°C° 0.6 mm 2 mps 725 mmHg 68%
    01:00 +2°C° 0.6 mm 2 mps 724 mmHg 69%
    02:00 +2°C° 0.5 mm 2 mps 724 mmHg 69%
    03:00 +2°C° 0.5 mm 2 mps 724 mmHg 70%
    04:00 +2°C° 0.5 mm 2 mps 724 mmHg 71%
    05:00 +2°C° 0.6 mm 2 mps 724 mmHg 71%
    06:00 +2°C° 0.6 mm 2 mps 724 mmHg 72%
    07:00 +2°C° 0.6 mm 2 mps 724 mmHg 72%
    08:00 +3°C° 0.5 mm 2 mps 724 mmHg 72%
    09:00 +4°C° 0.5 mm 2 mps 724 mmHg 71%
    10:00 +4°C° 0.5 mm 2 mps 724 mmHg 71%
    11:00 +5°C° 0.4 mm 2 mps 724 mmHg 71%
    12:00 +6°C° 0.4 mm 2 mps 724 mmHg 72%
    13:00 +7°C° 0.4 mm 2 mps 724 mmHg 72%
    14:00 +7°C° 0.3 mm 2 mps 724 mmHg 75%
    15:00 +7°C° 0.3 mm 2 mps 724 mmHg 77%
    16:00 +7°C° 0.3 mm 2 mps 724 mmHg 79%
    17:00 +7°C° 0.6 mm 2 mps 724 mmHg 81%
    18:00 +7°C° 0.6 mm 2 mps 724 mmHg 83%
    19:00 +6°C° 0.6 mm 2 mps 724 mmHg 85%
    20:00 +6°C° 0.5 mm 2 mps 724 mmHg 85%
    21:00 +6°C° 0.5 mm 2 mps 725 mmHg 86%
    22:00 +6°C° 0.5 mm 2 mps 725 mmHg 86%
    23:00 +6°C° 0.1 mm 2 mps 725 mmHg 87%
    Show more